CW2334 Weather Reports


Display with metric or nautical units.
time (UTC)temp
F
wind
direction
speed
MPH
gust
MPH
rain 1hr
in
rain 24hr
in
rain mn
in
humidity
%
barometer
mb
20260510102326 46 17 0.0 0.0 0.00 0.27 0.00 92 1011.6
20260510092325 47 17 0.0 0.0 0.00 0.27 0.00 94 1011.1
20260510085325 47 17 0.0 0.0 0.00 0.27 0.00 93 1010.7
20260510082324 48 17 0.0 0.0 0.00 0.27 0.00 93 1010.3
20260510075324 49 17 0.0 0.0 0.00 0.27 0.00 92 1009.9
20260510072324 49 17 0.0 0.0 0.00 0.27 0.00 92 1009.6
20260510065323 50 17 0.0 1.0 0.00 0.28 0.00 91 1009.3
20260510062323 50 17 0.0 2.0 0.00 0.28 0.00 91 1009.2
20260510055322 52 13 0.0 4.0 0.00 0.28 0.00 90 1008.9
20260510052322 55 311 0.0 6.0 0.00 0.28 0.00 91 1008.8
20260510045322 54 158 0.0 4.0 0.00 0.29 0.00 94 1007.5
20260510042322 55 158 0.0 2.0 0.00 0.29 0.00 94 1006.6
20260510035321 54 158 0.0 4.0 0.00 0.29 0.00 96 1006.6
20260510032320 54 180 0.0 0.0 0.00 0.30 0.29 96 1006.4
20260510025320 55 180 0.0 4.0 0.00 0.30 0.29 96 1006.6
20260510022320 54 136 0.0 0.0 0.00 0.30 0.29 96 1005.8
20260510015319 54 136 0.0 0.0 0.00 0.31 0.29 95 1006.0
20260510012319 55 136 0.0 0.0 0.00 0.31 0.29 95 1005.7
20260510005318 55 136 0.0 0.0 0.00 0.32 0.29 95 1005.4
20260509235317 56 136 0.0 3.0 0.18 0.37 0.29 94 1005.3
20260509232317 55 90 0.0 7.0 0.27 0.41 0.29 92 1005.3
20260509225316 58 323 1.0 13.0 0.09 0.27 0.11 79 1005.4
20260509222316 68 170 2.0 6.0 0.00 0.20 0.02 59 1003.5
20260509212315 69 193 1.0 12.0 0.00 0.21 0.02 59 1002.8
20260509205314 69 175 0.0 9.0 0.00 0.21 0.02 58 1003.5
20260509202314 69 194 0.0 12.0 0.00 0.22 0.02 56 1004.0
20260509195314 69 180 0.0 7.0 0.00 0.22 0.02 59 1004.2
20260509192314 68 170 4.0 10.0 0.00 0.22 0.02 59 1004.8
20260509185314 68 170 3.0 12.0 0.00 0.22 0.02 59 1005.2
20260509182313 69 190 0.0 10.0 0.00 0.22 0.02 62 1005.0
20260509175313 68 142 1.0 9.0 0.00 0.22 0.02 62 1005.3
20260509165312 65 21 3.0 7.0 0.00 0.22 0.02 75 1005.5
20260509162312 64 186 1.0 5.0 0.00 0.22 0.02 74 1005.8
20260509155312 60 100 0.0 5.0 0.00 0.22 0.02 83 1006.1
20260509152312 58 170 0.0 8.0 0.00 0.22 0.02 86 1005.9
20260509145310 57 161 0.0 6.0 0.00 0.22 0.02 94 1005.9
20260509142310 55 155 0.0 5.0 0.00 0.22 0.02 96 1005.8
20260509135309 55 164 0.0 5.0 0.00 0.22 0.02 97 1005.8
20260509132309 54 175 0.0 3.0 0.00 0.22 0.02 97 1005.8
20260509122309 53 170 0.0 4.0 0.00 0.24 0.02 97 1006.2
20260509115308 53 159 0.0 3.0 0.00 0.25 0.02 97 1006.2
20260509105337 52 175 0.0 0.0 0.00 0.27 0.02 97 1006.0